Regional Weather Roundup
Issued by NWS

Home | Current Version | Previous Version | Graphics & Text | Print | Product List | Glossary On
Versions: 1 2 3 4 5 6 7 8 9 10 11 12 13 14 15 16 17 18 19 20 21 22 23 24 25 26 27 28 29 30 31 32 33 34 35 36 37 38 39 40 41 42 43 44 45 46 47 48 49 50
000
ASUS45 KCYS 271510
RWRWY

WYOMING REGIONAL WEATHER ROUNDUP
NATIONAL WEATHER SERVICE CHEYENNE WY
900 AM MDT MON JUL 27 2015

NOTE:  "FAIR" INDICATES FEW OR NO CLOUDS BELOW 12,000 FEET
WITH NO SIGNIFICANT WEATHER AND/OR OBSTRUCTIONS TO VISIBILITY.

WYZ001-271600-
YELLOWSTONE NATIONAL PARK

CITY           SKY/WX    TMP DP  RH WIND       PRES   REMARKS
LK YELLOWSTONE   N/A     55  42  61 SE5       30.01F
W YELLOWSTONE  NOT AVBL

$$
WYZ002>013-054>058-071-098>099-271600-
NORTHERN WYOMING

CITY           SKY/WX    TMP DP  RH WIND       PRES   REMARKS
JACKSON        FAIR      54  43  66 CALM      29.93F
CODY           FAIR      63  52  67 N14       29.89S
GREYBULL       FAIR      71  48  43 NW5       29.78F
WORLAND        FAIR      70  48  45 NW13      29.81F
SHERIDAN       FAIR      67  51  56 NW18G26   29.83F
BUFFALO        FAIR      67  49  52 N12       29.86S
GILLETTE       FAIR      78  46  32 N7        29.80R
HULETT         FAIR      77  50  38 SW10      29.81R
NEWCASTLE      FAIR      73  52  46 MISG      29.85F

$$
WYZ014>020-022>026-101>103-271600-
CENTRAL WYOMING

CITY           SKY/WX    TMP DP  RH WIND       PRES   REMARKS
BIG PINEY      FAIR      58  36  43 S6        29.99F
PINEDALE       FAIR      63  32  31 SE7       30.01S
DUBOIS         FAIR      55  32  41 CALM      29.96F
LANDER         FAIR      74  40  29 CALM      29.86S
RIVERTON       FAIR      76  45  33 S10       29.87F
CASPER         FAIR      77  44  30 S13       29.89F
DOUGLAS        FAIR      80  52  37 SE6       29.90F

$$
WYZ021-027>030-104>119-271600-
SOUTHERN WYOMING

CITY           SKY/WX    TMP DP  RH WIND       PRES   REMARKS
EVANSTON       FAIR      70  28  21 SW13G23   30.01S
KEMMERER       FAIR      70  27  19 S14G21    30.01F
FORT BRIDGER   SUNNY     75  25  15 SW21G28   30.03F
ROCK SPRINGS   FAIR      75  43  31 S18       30.00F
DIXON          FAIR      76  42  30 S13       30.07F
RAWLINS        FAIR      75  42  30 SE8       30.05S
SARATOGA       FAIR      73  39  29 SE13G20   30.08F
LARAMIE        FAIR      71  44  37 SW9       30.10F
CHEYENNE       FAIR      78  49  35 W7        30.00F
TORRINGTON     FAIR      72  60  66 CALM      29.86F
PINE BLUFFS    FAIR      70  61  73 W6        29.95F

$$


USA.gov is the U.S. government's official web portal to all federal, state and local government web resources and services.